Regional Weather Roundup
Issued by NWS

Home | Current Version | Previous Version | Text Only | Print | Product List | Glossary Off
Versions: 1 2 3 4 5 6 7 8 9 10 11 12 13 14 15 16 17 18 19 20 21 22 23 24 25 26 27 28 29 30 31 32 33 34 35 36 37 38 39 40 41 42 43 44 45 46 47 48 49 50

000
ASUS43 KMKX 241259
RWRWI

WISCONSIN REGIONAL WEATHER ROUNDUP
NATIONAL WEATHER SERVICE MILWAUKEE/SULLIVAN WI
800 AM CDT THU JUL 24 2014

NOTE: "FAIR" INDICATES FEW OR NO CLOUDS BELOW 12,000 FEET WITH NO
SIGNIFICANT WEATHER AND/OR OBSTRUCTIONS TO VISIBILITY.

WIZ001-002-006>008-014>016-023>028-241400-
NORTHWEST WISCONSIN

CITY           SKY/WX    TMP DP  RH WIND       PRES   REMARKS
SUPERIOR ARPT  MOSUNNY   57  56  96 CALM      30.17F
ASHLAND        SUNNY     60  56  86 CALM      30.18F
HAYWARD        MOSUNNY   63  54  72 CALM      30.17F
SIREN          SUNNY     62  55  79 CALM      30.15F
RICE LAKE      MOSUNNY   60  53  78 SE3       30.19F
LADYSMITH      CLOUDY    59  55  85 E5        30.20F
EAU CLAIRE     NOT AVBL
MENOMONIE      MOSUNNY   61  56  83 CALM      30.17F
NEW RICHMOND   SUNNY     62  56  82 CALM      30.16F
OSCEOLA        SUNNY     63  60  90 E3        30.17F
$$

WIZ003>005-009-010-017-018-241400-
NORTH CENTRAL WISCONSIN

CITY           SKY/WX    TMP DP  RH WIND       PRES   REMARKS
WOODRUFF       SUNNY     58  52  81 CALM      30.20F
RHINELANDER    SUNNY     59  52  77 SW5       30.21F
EAGLE RIVER    MOSUNNY   53  53 100 CALM      30.20F
LAND O LAKES   MOSUNNY   52  52 100 CALM      30.22F
PHILLIPS       CLOUDY    58  54  86 SW5       30.20S
TOMAHAWK       MOSUNNY   54  53  97 CALM      30.21F
MEDFORD        MOSUNNY   57  53  88 S7        30.20S
MERRILL        SUNNY     55  53  92 CALM      30.20F
$$

WIZ029-030-035-036-043>047-241400-
CENTRAL WISCONSIN

CITY           SKY/WX    TMP DP  RH WIND       PRES   REMARKS
WAUSAU         SUNNY     61  52  72 S6        30.19F
MOSINEE        SUNNY     61  55  82 CALM      30.22S
MARSHFIELD     SUNNY     61  55  81 S6        30.19F
STEVENS POINT  MOSUNNY   58  51  77 CALM      30.20F
WAUPACA        SUNNY     60  53  79 CALM      30.21S
WAUTOMA        NOT AVBL
WISC RAPIDS    SUNNY     63  52  67 S5        30.21S
CAMP DOUGLAS   NOT AVBL
$$

WIZ011>013-019>022-031-037>040-048>050-241400-
NORTHEAST WISCONSIN

CITY           SKY/WX    TMP DP  RH WIND       PRES   REMARKS
ANTIGO         SUNNY     56  52  85 CALM      30.21F
STURGEON BAY   SUNNY     61  52  72 NW5       30.21S
GREEN BAY      SUNNY     62  54  74 CALM      30.20S
MANITOWOC      NOT AVBL
APPLETON       MOSUNNY   61  48  63 CALM      30.21S
CLINTONVILLE   SUNNY     59  52  77 CALM      30.20F
OSHKOSH        SUNNY     64  54  69 N3        30.20S
$$

WIZ032>034-041-042-053>061-241400-
SOUTHWEST WISCONSIN

CITY           SKY/WX    TMP DP  RH WIND       PRES   REMARKS
LA CROSSE      SUNNY     65  56  72 SE6       30.16F
SPARTA         SUNNY     59  55  85 CALM      30.19S
VIROQUA        FAIR      61  54  77 CALM      30.19F
BOSCOBEL       MOSUNNY   62  57  83 CALM      30.20S
PRAIRIE DU CHI SUNNY     61  54  78 E5        30.18S
PLATTEVILLE    FAIR      61  55  82 E3        30.20S
$$

WIZ056-057-062-063-064-067-068-241400-
SOUTH CENTRAL WISCONSIN

CITY           SKY/WX    TMP DP  RH WIND       PRES   REMARKS
BARABOO/DELLS  PTSUNNY   56  51  84 CALM      30.19F
LONE ROCK      NOT AVBL
WATERTOWN      SUNNY     59  51  76 NE5       30.20S
MADISON        MOSUNNY   63  52  67 CALM      30.19F
MIDDLETON      FAIR      60  52  76 CALM      30.20S
MONROE         MOSUNNY   61  50  67 NE3       30.19F
JANESVILLE     MOSUNNY   63  52  67 NE6       30.18F
$$

WIZ051-052-058>065-066-070>072-241400-
SOUTHEAST WISCONSIN

CITY           SKY/WX    TMP DP  RH WIND       PRES   REMARKS
MILWAUKEE      SUNNY     63  52  67 N8        30.20S
WAUKESHA       NOT AVBL
MILWAUKEE/TIMM SUNNY     61  48  63 N6        30.21S
RACINE         SUNNY     61  55  81 N10       30.22R
BURLINGTON     SUNNY     55  52  88 N3        30.20R
KENOSHA        SUNNY     61  54  77 N6        30.20R
FOND DU LAC    SUNNY     61  52  72 CALM      30.20F
SHEBOYGAN      SUNNY     61  54  77 CALM      30.20S
WEST BEND      SUNNY     57  50  77 CALM      30.20F
JUNEAU         SUNNY     58  51  77 N5        30.21F
$$

LSZ147-162-241400-
LAKE SUPERIOR

STATION/POSITION TIME  TEMP    WIND        PRES    WAVE
                       AIR SEA DIR/SP/G            HT/PER
                 (UTC) (F)     (DEG/KT/KT) (MB)    (FT/S)
$$

LMZ867-665-643>646-241400-
LAKE MICHIGAN

STATION/POSITION TIME  TEMP    WIND        PRES    WAVE
                       AIR SEA DIR/SP/G            HT/PER
                 (UTC) (F)     (DEG/KT/KT) (MB)    (FT/S)
$$

TC  - TEMPERATURE IN CELSIUS
VSB - VISIBILITY IN STATUTE MILES
WCI - WIND CHILL INDEX
HX  - HEAT INDEX



USA.gov is the U.S. government's official web portal to all federal, state and local government web resources and services.